Weather History for Danbury, CT

Change the Weather History Date:

Saturday, June 8, 2013

  Actual Average Record
Temperature  
Mean Temperature 64 °F -  
Max Temperature 77 °F 79 °F 94 °F (1984)
Min Temperature 53 °F 54 °F 40 °F (1949)
Degree Days  
Heating Degree Days 1    
Growing Degree Days 14 (Base 50)    
Moisture  
Dew Point 55 °F    
Average Humidity 82    
Maximum Humidity 94    
Minimum Humidity 57    
Precipitation  
Precipitation 1.12 in - - ()
Sea Level Pressure  
Sea Level Pressure 29.79 in    
Wind  
Wind Speed 8 mph (NNW)    
Max Wind Speed 13 mph    
Max Gust Speed 20 mph    
Visibility 7 miles    
Events Rain    
Averages and records for this station are not official NWS values.
T = Trace of Precipitation, MM = Missing Value Source: NWS Daily Summary

Daily Weather History Graph

Daily Weather History Graph

Search for Another Location

Airport:

Trip Planner

Search our weather history database for the weather conditions in past years. The results will help you decide how hot, cold, wet, or windy it might be!

Date:

Astronomy

Jun. 08, 2013 Rise Set
Actual Time 5:20 AM EDT 8:25 PM EDT
Civil Twilight 4:46 AM EDT 8:59 PM EDT
Nautical Twilight 4:04 AM EDT 9:42 PM EDT
Astronomical Twilight 3:13 AM EDT 10:33 PM EDT
Moon 5:26 AM EDT (6/8) 8:25 PM EDT (6/8)
Length of Visible Light 16h 12m
Length of Day
15h 05m
New Moon, 0% of the Moon is Illuminated
Jun 8
New Moon
Jun 16
First Quarter
Jun 23
Full
Jun 30
Last Quarter
Jul 8
New

Hourly Weather History & Observations

Time (EDT) Temp. Dew Point Humidity Pressure Visibility Wind Dir Wind Speed Gust Speed Precip Events Conditions
12:01 AM 55.4 °F 53.6 °F 94% 29.71 in 4.0 mi NE 11.5 mph 17.3 mph 0.01 in Rain Light Rain
12:28 AM 55.4 °F 53.6 °F 94% 29.70 in 2.0 mi NE 12.7 mph - 0.03 in Rain Light Rain
12:36 AM 55.4 °F 53.6 °F 94% 29.69 in 1.8 mi ENE 9.2 mph 18.4 mph 0.05 in Rain Rain
12:44 AM 55.4 °F 53.6 °F 94% 29.69 in 2.0 mi NE 11.5 mph - 0.06 in Rain Light Rain
12:53 AM 55.0 °F 53.1 °F 93% 29.68 in 2.5 mi NE 9.2 mph 18.4 mph 0.06 in Rain Light Rain
1:06 AM 55.4 °F 53.6 °F 94% 29.68 in 4.0 mi NE 10.4 mph 19.6 mph 0.00 in Rain Light Rain
1:33 AM 55.4 °F 53.6 °F 94% 29.66 in 2.0 mi NE 6.9 mph 17.3 mph 0.04 in Rain Rain
1:44 AM 55.4 °F 51.8 °F 88% 29.66 in 3.0 mi NE 8.1 mph - 0.05 in Rain Light Rain
1:53 AM 55.0 °F 52.0 °F 89% 29.65 in 2.5 mi NE 8.1 mph - 0.06 in Rain Light Rain
2:10 AM 55.4 °F 51.8 °F 88% 29.64 in 3.0 mi NE 8.1 mph - 0.01 in Rain Light Rain
2:19 AM 53.6 °F 51.8 °F 94% 29.64 in 2.5 mi NE 8.1 mph - 0.02 in Rain Light Rain
2:30 AM 53.6 °F 51.8 °F 94% 29.64 in 1.5 mi NE 9.2 mph - 0.09 in Rain Heavy Rain
2:47 AM 53.6 °F 51.8 °F 94% 29.64 in 2.0 mi NNE 6.9 mph - 0.23 in Rain Heavy Rain
2:48 AM 54.0 °F 52.0 °F 93% 29.63 in 2.0 mi NNE 8.1 mph - 0.24 in Rain Heavy Rain
3:17 AM 53.6 °F 51.8 °F 94% 29.64 in 1.8 mi North 5.8 mph - 0.25 in Rain Heavy Rain
3:53 AM 54.0 °F 51.1 °F 90% 29.63 in 2.5 mi NNE 6.9 mph 16.1 mph 0.73 in Rain Rain
4:00 AM 53.6 °F 51.8 °F 94% 29.63 in 4.0 mi NNE 8.1 mph - 0.01 in Rain Rain
4:09 AM 53.6 °F 51.8 °F 94% 29.64 in 5.0 mi North 4.6 mph - 0.02 in Rain Light Rain
4:53 AM 55.0 °F 52.0 °F 89% 29.66 in 9.0 mi North 6.9 mph - 0.03 in Rain Light Rain
5:02 AM 55.4 °F 51.8 °F 88% 29.66 in 10.0 mi North 8.1 mph - 0.00 in   Overcast
5:53 AM 55.0 °F 52.0 °F 89% 29.69 in 10.0 mi Variable 5.8 mph - 0.00 in   Overcast
6:53 AM 55.9 °F 52.0 °F 87% 29.74 in 10.0 mi NW 3.5 mph - N/A   Overcast
7:08 AM 57.2 °F 53.6 °F 88% 29.76 in 10.0 mi NW 8.1 mph - N/A   Mostly Cloudy
7:16 AM 57.2 °F 53.6 °F 88% 29.76 in 10.0 mi NW 8.1 mph - N/A   Mostly Cloudy
7:26 AM 57.2 °F 53.6 °F 88% 29.77 in 10.0 mi NW 5.8 mph - N/A   Mostly Cloudy
7:38 AM 57.2 °F 53.6 °F 88% 29.77 in 10.0 mi WNW 8.1 mph - N/A   Mostly Cloudy
7:53 AM 57.0 °F 53.1 °F 87% 29.78 in 10.0 mi WNW 8.1 mph - N/A   Overcast
8:53 AM 60.1 °F 54.0 °F 80% 29.82 in 10.0 mi WNW 5.8 mph - N/A   Mostly Cloudy
9:05 AM 60.8 °F 53.6 °F 77% 29.84 in 10.0 mi Variable 4.6 mph - N/A   Scattered Clouds
9:53 AM 64.0 °F 55.9 °F 75% 29.84 in 10.0 mi NW 6.9 mph - N/A   Mostly Cloudy
10:49 AM 66.2 °F 55.4 °F 68% 29.88 in 10.0 mi West 6.9 mph - N/A   Scattered Clouds
10:53 AM 66.0 °F 57.0 °F 73% 29.88 in 10.0 mi WNW 8.1 mph - N/A   Scattered Clouds
11:02 AM 66.2 °F 57.2 °F 73% 29.89 in 10.0 mi WNW 9.2 mph - N/A   Mostly Cloudy
11:53 AM 69.1 °F 57.9 °F 68% 29.89 in 10.0 mi West 5.8 mph - N/A   Mostly Cloudy
12:22 PM 69.8 °F 57.2 °F 64% 29.90 in 10.0 mi Variable 4.6 mph - N/A   Scattered Clouds
12:51 PM 71.6 °F 60.8 °F 69% 29.90 in 10.0 mi SW 5.8 mph - N/A   Mostly Cloudy
12:53 PM 71.1 °F 60.1 °F 68% 29.90 in 10.0 mi SW 9.2 mph - N/A   Mostly Cloudy
1:31 PM 71.6 °F 60.8 °F 69% 29.91 in 10.0 mi WSW 8.1 mph - N/A   Overcast
1:53 PM 72.0 °F 60.1 °F 66% 29.90 in 10.0 mi SW 6.9 mph - N/A   Overcast
2:53 PM 75.9 °F 60.1 °F 58% 29.91 in 10.0 mi WSW 10.4 mph 16.1 mph N/A   Mostly Cloudy
3:53 PM 73.9 °F 59.0 °F 59% 29.91 in 10.0 mi West 9.2 mph - N/A   Partly Cloudy
4:53 PM 75.0 °F 59.0 °F 57% 29.93 in 10.0 mi WSW 9.2 mph - N/A   Scattered Clouds
5:53 PM 73.0 °F 60.1 °F 64% 29.95 in 10.0 mi West 5.8 mph - N/A   Overcast
6:53 PM 73.0 °F 57.9 °F 59% 29.97 in 10.0 mi West 4.6 mph - N/A   Mostly Cloudy
7:53 PM 70.0 °F 57.0 °F 63% 29.99 in 10.0 mi West 4.6 mph - N/A   Clear
8:53 PM 63.0 °F 57.0 °F 81% 30.00 in 10.0 mi WSW 3.5 mph - N/A   Clear
9:53 PM 61.0 °F 57.0 °F 87% 30.03 in 10.0 mi Calm Calm - N/A   Clear
10:53 PM 59.0 °F 55.9 °F 90% 30.05 in 10.0 mi WSW 4.6 mph - N/A   Clear
11:53 PM 57.9 °F 55.0 °F 90% 30.06 in 10.0 mi Calm Calm - N/A   Clear